Weather History for Stanley, ID

Change the Weather History Date:

Friday, November 8, 2013

  Actual Average Record
Temperature  
Mean Temperature 31 °F 28 °F  
Max Temperature 38 °F 40 °F 62 °F (1999)
Min Temperature 24 °F 16 °F -2 °F (1994)
Degree Days  
Heating Degree Days 34 37  
Month to date heating degree days 303 283  
Since 1 July heating degree days 1931 2147  
Cooling Degree Days 0 0  
Month to date cooling degree days 0 0  
Year to date cooling degree days 19 3  
Moisture  
Dew Point 24 °F    
Average Humidity 70    
Maximum Humidity 88    
Minimum Humidity 52    
Precipitation  
Precipitation 0.00 in 0.09 in 1.73 in (1980)
Month to date precipitation 0.89 0.73  
Year to date precipitation 11.76 14.41  
Sea Level Pressure  
Sea Level Pressure 30.00 in    
Wind  
Wind Speed 3 mph (NNE)    
Max Wind Speed 15 mph    
Max Gust Speed 26 mph    
T = Trace of Precipitation, MM = Missing Value Source: NWS Daily Summary

Daily Weather History Graph

Daily Weather History Graph

Search for Another Location

Airport:

Trip Planner

Search our weather history database for the weather conditions in past years. The results will help you decide how hot, cold, wet, or windy it might be!

Date:

Astronomy

Nov. 08, 2013 Rise Set
Actual Time 7:26 AM MST 5:20 PM MST
Civil Twilight 6:55 AM MST 5:50 PM MST
Nautical Twilight 6:20 AM MST 6:25 PM MST
Astronomical Twilight 5:47 AM MST 6:59 PM MST
Moon 12:25 PM MST (11/8) 10:46 PM MST (11/8)
Length of Visible Light 10h 55m
Length of Day
9h 53m
Waxing Crescent, 34% of the Moon is Illuminated
Nov 8
Waxing Crescent
Nov 9
First Quarter
Nov 17
Full
Nov 25
Last Quarter
Dec 2
New

Hourly Weather History & Observations

Time (MST) Temp. Windchill Dew Point Humidity Pressure Visibility Wind Dir Wind Speed Gust Speed Precip Events Conditions
12:51 AM 35.1 °F 25.9 °F 24.1 °F 64% 29.90 in - NW 13.8 mph 20.7 mph N/A   Unknown
1:51 AM 33.1 °F - 23.0 °F 66% 29.90 in - North - - N/A   Unknown
2:51 AM 30.9 °F - 24.1 °F 76% 29.93 in - Calm Calm - N/A   Unknown
3:51 AM 28.9 °F 25.2 °F 24.1 °F 82% 29.94 in - SSE 3.5 mph - N/A   Unknown
4:51 AM 28.0 °F 22.8 °F 24.1 °F 85% 29.96 in - SW 4.6 mph - N/A   Unknown
5:51 AM 28.0 °F 22.8 °F 21.9 °F 78% 29.96 in - ENE 4.6 mph - N/A   Unknown
6:51 AM 26.1 °F - 21.9 °F 84% 29.98 in - Calm Calm - N/A   Unknown
7:51 AM 25.0 °F - 21.9 °F 88% 29.99 in - Calm Calm - N/A   Unknown
8:51 AM 28.0 °F 22.8 °F 24.1 °F 85% 30.02 in - ENE 4.6 mph - N/A   Unknown
9:51 AM 30.9 °F 27.5 °F 24.1 °F 76% 30.01 in - ESE 3.5 mph - N/A   Unknown
10:51 AM 33.1 °F - 23.0 °F 66% 30.01 in - Calm Calm - N/A   Unknown
11:51 AM 36.0 °F - 23.0 °F 59% 29.99 in - Calm Calm - N/A   Unknown
12:51 PM 36.0 °F 29.6 °F 21.9 °F 57% 29.98 in - North 8.1 mph - N/A   Unknown
1:51 PM 37.9 °F 33.5 °F 21.9 °F 53% 29.97 in - Variable 5.8 mph - N/A   Unknown
2:51 PM 35.1 °F 29.3 °F 21.9 °F 59% 30.00 in - NW 6.9 mph - N/A   Unknown
3:51 PM 35.1 °F 29.3 °F 23.0 °F 61% 30.00 in - North 6.9 mph - N/A   Unknown
4:51 PM 33.1 °F - 24.1 °F 70% 30.03 in - Calm Calm - N/A   Unknown
5:51 PM 32.0 °F - 25.0 °F 75% 30.04 in - Calm Calm - N/A   Unknown
6:51 PM 32.0 °F - 25.0 °F 75% 30.06 in - Calm Calm - N/A   Unknown
7:51 PM 30.9 °F - 26.1 °F 82% 30.08 in - Calm Calm - N/A   Unknown
8:51 PM 30.0 °F - 26.1 °F 85% 30.07 in - Calm Calm - N/A   Unknown
9:51 PM 28.0 °F - 25.0 °F 88% 30.08 in - Calm Calm - N/A   Unknown
10:51 PM 30.0 °F - 25.0 °F 82% 30.07 in - Calm Calm - N/A   Unknown
11:51 PM 30.0 °F - 26.1 °F 85% 30.06 in - Calm Calm - N/A   Unknown